Location: Meriden
(44.0740°N, 93.3870°W)
Time: 01:34:41
(UTC-05:00)

Amateur Radio Satellites - All Passes

Search period start: 21 April 2015 01:04
Search period end: 22 April 2015 01:04
Location: Meriden, 44.0740°N, 93.3870°W

Satellite Date Start Highest point End Downlink Frequencies (MHz)
Time Altitude Azimuth
ANTELSAT 21 Apr 01:16:38 01:20:00 19° 296° (WNW) 01:23:13 437.575/2403.000
QB50P2 21 Apr 01:17:35 01:21:18 28° 292° (WNW) 01:24:58 145.880/145.840
TISAT 1 21 Apr 01:18:49 01:22:45 39° 263° (W) 01:26:42 437.305
Cosmos 2491 21 Apr 01:27:56 01:35:53 36° 292° (WNW) 01:43:44 435.465 / 435.565
SPROUT 21 Apr 01:29:08 01:32:45 26° 266° (W) 01:36:21 437.525
RS-15 21 Apr 01:29:19 01:40:44 68° 242° (WSW) 01:52:35 29.354- 29.394
PHONESAT 2.4 21 Apr 01:31:13 01:33:38 17° 206° (SSW) 01:36:00 2401.200-2431.200
NANOSAT C BR1 21 Apr 01:40:12 01:43:11 18° 295° (WNW) 01:46:03 145.865
POPSAT HIP 1 21 Apr 01:40:53 01:43:52 18° 295° (WNW) 01:46:43 437.405
YUBILEINY 21 Apr 01:41:51 01:45:45 13° 286° (WNW) 01:49:01 435.215
Cosmos 2504 21 Apr 01:53:08 02:01:30 87° 81° (E) 02:09:11 435.465 / 435.565
STARS 21 Apr 01:56:53 01:57:27 10° 59° (ENE) 01:58:15 437.465
ITUPSAT 1 21 Apr 02:02:04 02:06:53 88° 74° (ENE) 02:11:43 437.325
KKS-1 21 Apr 02:22:06 02:25:51 28° 68° (ENE) 02:29:41 437.445
Oscar 19 21 Apr 02:25:47 02:30:48 47° 98° (E) 02:35:50 437.125/150
BEESAT 21 Apr 02:36:47 02:41:21 42° 262° (W) 02:45:53 436.000
AIST 1 21 Apr 02:38:29 02:42:30 36° 285° (WNW) 02:46:31
SWISSCUBE 21 Apr 02:38:31 02:42:59 37° 263° (W) 02:47:25 437.505
Gurwin Techsat 1B 21 Apr 02:47:45 02:51:40 21° 91° (E) 02:55:44 435.225
ITAMSAT 1 21 Apr 02:49:05 02:53:14 24° 93° (E) 02:57:28 435.822/435.867
STARS 21 Apr 03:28:53 03:33:16 88° 74° (ENE) 03:37:42 437.465
AO-7 21 Apr 03:30:17 03:32:23 11° 82° (E) 03:35:14 29.400- 29.500
ITUPSAT 1 21 Apr 03:44:32 03:45:34 10° 274° (W) 03:46:15 437.325
RS-15 21 Apr 03:44:53 03:51:23 16° 261° (W) 03:57:02 29.354- 29.394
MOZHAYETS 4 21 Apr 03:48:10 03:51:02 17° 63° (ENE) 03:54:02
Cosmos 2504 21 Apr 03:48:24 03:53:49 19° 282° (WNW) 03:58:39 435.465 / 435.565
KKS-1 21 Apr 03:58:32 04:02:27 30° 265° (W) 04:06:21 437.445
JAS-2 21 Apr 03:58:49 04:02:39 17° 83° (E) 04:06:31 435.910
GONETS M04 21 Apr 04:03:09 04:11:32 46° 71° (ENE) 04:19:58
Oscar 19 21 Apr 04:05:43 04:09:55 25° 296° (WNW) 04:14:01 437.125/150
Gurwin Techsat 1B 21 Apr 04:26:51 04:32:02 53° 289° (WNW) 04:37:10 435.225
CUSAT 1 21 Apr 04:27:19 04:33:43 39° 71° (ENE) 04:41:15 437.405
ITAMSAT 1 21 Apr 04:28:03 04:32:58 44° 291° (WNW) 04:37:51 435.822/435.867
BEESAT 2 21 Apr 04:29:06 04:32:56 39° 118° (ESE) 04:36:50 435.950
HORYU 2 21 Apr 04:31:08 04:35:24 40° 98° (E) 04:39:39 437.375
DANDE 21 Apr 04:32:19 04:38:18 34° 71° (ENE) 04:45:33 436.750
BEESAT 3 21 Apr 04:34:20 04:38:19 54° 120° (ESE) 04:42:22 437.485
Cosmos 2499 21 Apr 04:39:36 04:42:33 13° 51° (NE) 04:45:56 435.465 / 435.565
AUBIESAT-1 21 Apr 04:42:50 04:44:58 13° 54° (NE) 04:47:19 437.475
AIST 2 21 Apr 04:57:38 05:01:11 27° 115° (ESE) 05:04:51 435.215
CUBESAT XI-V 21 Apr 05:12:41 05:13:00 10° 59° (ENE) 05:13:35 437.345
AO-7 21 Apr 05:18:52 05:27:08 64° 104° (ESE) 05:35:24 29.400- 29.500
MOZHAYETS 4 21 Apr 05:23:15 05:27:50 60° 259° (W) 05:32:28
M-CUBED/EXP-1 PRIME 21 Apr 05:27:35 05:31:54 35° 63° (ENE) 05:36:19 437.505
JAS-2 21 Apr 05:42:04 05:48:54 81° 285° (WNW) 05:54:49 435.910
GONETS M04 21 Apr 06:00:12 06:08:25 43° 272° (W) 06:16:29
BEESAT 2 21 Apr 06:07:40 06:11:11 25° 317° (NW) 06:14:41 435.950
HORYU 2 21 Apr 06:08:18 06:11:50 22° 295° (WNW) 06:15:14 437.375
CUSAT 1 21 Apr 06:09:51 06:16:37 49° 266° (W) 06:24:22 437.405
BEESAT 3 21 Apr 06:13:30 06:16:40 20° 320° (NW) 06:19:47 437.485
AUBIESAT-1 21 Apr 06:14:19 06:19:04 85° 73° (ENE) 06:23:56 437.475
DANDE 21 Apr 06:15:08 06:21:46 55° 264° (W) 06:29:44 436.750
PRISM 21 Apr 06:18:51 06:22:25 28° 68° (ENE) 06:26:02 437.425
STRAND 1 21 Apr 06:24:55 06:29:16 30° 66° (ENE) 06:33:42 437.568
Cosmos 2499 21 Apr 06:30:00 06:37:59 63° 76° (ENE) 06:45:21 435.465 / 435.565
AIST 2 21 Apr 06:35:42 06:39:40 36° 313° (NW) 06:43:41 435.215
CUTE-I 21 Apr 06:39:41 06:43:45 23° 92° (E) 06:47:56 437.470
CUBESAT XI-V 21 Apr 06:45:06 06:49:46 80° 75° (ENE) 06:54:25 437.345
Cubesat XI-IV 21 Apr 06:47:29 06:51:54 27° 93° (E) 06:56:24 437.490
M-CUBED/EXP-1 PRIME 21 Apr 07:02:31 07:06:45 31° 261° (W) 07:11:00 437.505
AO-7 21 Apr 07:12:18 07:19:31 34° 303° (WNW) 07:26:36 29.400- 29.500
JAS-2 21 Apr 07:28:51 07:32:50 16° 307° (NW) 07:36:20 435.910
AUBIESAT-1 21 Apr 07:52:34 07:54:32 12° 269° (W) 07:56:15 437.475
PRISM 21 Apr 07:54:18 07:57:53 26° 265° (W) 08:01:24 437.425
STRAND 1 21 Apr 08:03:39 08:08:23 37° 263° (W) 08:13:06 437.568
CUTE-I 21 Apr 08:19:00 08:24:09 50° 290° (WNW) 08:29:15 437.470
Cosmos 2499 21 Apr 08:24:07 08:30:31 27° 278° (W) 08:36:22 435.465 / 435.565
CUBESAT XI-V 21 Apr 08:26:28 08:27:53 11° 274° (W) 08:29:02 437.345
Cubesat XI-IV 21 Apr 08:27:11 08:32:12 42° 291° (WNW) 08:37:10 437.490
BRITE-PL 21 Apr 08:32:03 08:35:42 21° 92° (E) 08:39:41 437.365/2234.400
HO-68 21 Apr 08:39:12 08:43:41 18° 87° (E) 08:48:29 435.675
GOMX 1 21 Apr 08:45:43 08:49:11 19° 91° (E) 08:52:58 467.674
CANX-2 21 Apr 09:03:38 09:06:40 19° 91° (E) 09:09:47 2200.000
SEEDS 21 Apr 09:04:23 09:06:39 14° 89° (E) 09:09:05 437.485
PCSat 21 Apr 09:05:20 09:09:25 23° 108° (ESE) 09:13:40 145.827
O/OREOS (USA 219) 21 Apr 09:13:10 09:17:34 49° 61° (ENE) 09:21:55 437.305
CUTE 1.7 + AOD 2 21 Apr 09:13:22 09:16:40 22° 92° (E) 09:20:02 437.475
CINEMA 3 21 Apr 09:30:55 09:34:16 19° 90° (E) 09:37:50 145.822/145.860
AAUSAT CUBESAT 2 21 Apr 09:33:05 09:36:13 21° 92° (E) 09:39:25 437.432
Cosmos 2491 21 Apr 09:38:49 09:46:10 29° 64° (ENE) 09:53:44 435.465 / 435.565
DOVE 4 21 Apr 09:45:43 09:50:31 47° 98° (E) 09:55:33 437.250
TIGRISAT 21 Apr 09:56:45 10:00:02 21° 65° (ENE) 10:03:31 435.000
UNISAT 6 21 Apr 09:58:33 10:02:00 22° 65° (ENE) 10:05:36 437.425
DUCHIFAT 1 21 Apr 10:00:53 10:01:44 11° 61° (ENE) 10:02:49 145.980
Oscar 11 21 Apr 10:02:05 10:05:20 21° 92° (E) 10:08:39 145.826/435.025
CUBEBUG 2 21 Apr 10:03:46 10:07:16 21° 91° (E) 10:10:53 437.445
BRITE-PL 21 Apr 10:09:45 10:14:28 50° 287° (WNW) 10:19:32 437.365/2234.400
QB50P1 21 Apr 10:13:27 10:15:47 15° 64° (ENE) 10:18:18 145.935-145.965
BUGSAT 1 21 Apr 10:17:45 10:18:43 11° 62° (ENE) 10:19:52 437.445
COMPASS 1 21 Apr 10:20:58 10:25:13 80° 102° (ESE) 10:29:25 437.405
GOMX 1 21 Apr 10:22:47 10:27:38 56° 287° (WNW) 10:32:46 467.674
HO-68 21 Apr 10:25:11 10:32:26 87° 287° (WNW) 10:39:38 435.675
DX 1 21 Apr 10:28:08 10:30:05 13° 89° (E) 10:32:14 434.975-435.025
HUMSAT D 21 Apr 10:28:42 10:29:18 10° 86° (E) 10:30:10 437.325/437.525
QB50P2 21 Apr 10:36:24 10:39:52 26° 68° (ENE) 10:43:25 145.880/145.840
SEEDS 21 Apr 10:38:41 10:42:52 53° 286° (WNW) 10:46:59 437.485
CANX-2 21 Apr 10:38:45 10:42:50 41° 288° (WNW) 10:46:50 2200.000
ANTELSAT 21 Apr 10:39:15 10:43:38 55° 73° (ENE) 10:48:11 437.575/2403.000
UWE-3 21 Apr 10:39:57 10:44:18 38° 96° (E) 10:48:41 435.000/436.395/437.385
PCSat 21 Apr 10:47:10 10:52:30 56° 306° (NW) 10:57:52 145.827
CUTE 1.7 + AOD 2 21 Apr 10:48:46 10:52:43 35° 290° (WNW) 10:56:36 437.475
YUBILEINY 21 Apr 10:49:07 10:56:17 30° 83° (E) 11:03:41 435.215
50 SAT 21 Apr 10:50:52 10:51:25 10° 87° (E) 10:52:13 437.505
O/OREOS (USA 219) 21 Apr 10:53:36 10:56:39 17° 258° (WSW) 10:59:31 437.305
NANOSAT C BR1 21 Apr 10:57:33 11:01:30 41° 71° (ENE) 11:05:29 145.865
POPSAT HIP 1 21 Apr 10:58:25 11:02:22 42° 71° (ENE) 11:06:23 437.405
FUNcube-1 21 Apr 11:02:49 11:07:19 51° 99° (E) 11:11:48 145.935
CINEMA 3 21 Apr 11:07:01 11:11:50 55° 287° (WNW) 11:16:43 145.822/145.860
AAUSAT CUBESAT 2 21 Apr 11:08:06 11:11:59 36° 289° (WNW) 11:15:48 437.432
VELOX 1 21 Apr 11:14:39 11:17:48 19° 92° (E) 11:21:05 145.980
DELFI C3 21 Apr 11:15:20 11:19:25 83° 284° (WNW) 11:23:27 145.870
BEESAT 3 21 Apr 11:16:18 11:16:54 10° 30° (NNE) 11:17:37 437.485
UKube-1 21 Apr 11:16:43 11:20:48 39° 98° (E) 11:24:53 .
DOVE 4 21 Apr 11:24:05 11:28:03 24° 293° (WNW) 11:32:02 437.250
POLYITAN 1 21 Apr 11:25:33 11:29:45 86° 77° (ENE) 11:34:02 437.675
ZACube-1 21 Apr 11:26:05 11:30:43 89° 103° (ESE) 11:35:20 437.345
AISAT 21 Apr 11:30:00 11:33:51 29° 95° (E) 11:37:46 437.250
TIGRISAT 21 Apr 11:32:15 11:36:30 44° 262° (W) 11:40:54 435.000
DUCHIFAT 1 21 Apr 11:32:48 11:36:59 83° 256° (WSW) 11:41:14 145.980
UNISAT 6 21 Apr 11:34:18 11:38:33 40° 263° (W) 11:42:53 437.425
CUBEBUG 1 21 Apr 11:35:00 11:37:32 15° 90° (E) 11:40:13 437.445
Cosmos 2491 21 Apr 11:35:07 11:43:52 68° 267° (W) 11:52:35 435.465 / 435.565
Oscar 11 21 Apr 11:37:37 11:41:42 38° 289° (WNW) 11:45:43 145.826/435.025
CUBEBUG 2 21 Apr 11:39:38 11:44:12 46° 288° (WNW) 11:48:46 437.445
QB50P1 21 Apr 11:47:08 11:51:16 55° 259° (W) 11:55:27 145.935-145.965
BUGSAT 1 21 Apr 11:49:40 11:53:41 74° 258° (WSW) 11:57:44 437.445
ESTCUBE 1 21 Apr 11:51:46 11:55:33 26° 94° (E) 11:59:21 437.505/2401.250
COMPASS 1 21 Apr 11:59:04 12:00:21 11° 298° (WNW) 12:01:23 437.405
HUMSAT D 21 Apr 12:01:20 12:05:42 77° 284° (WNW) 12:10:01 437.325/437.525
DX 1 21 Apr 12:02:30 12:06:50 62° 287° (WNW) 12:11:08 434.975-435.025
Oscar 19 21 Apr 12:08:54 12:10:34 12° 57° (ENE) 12:12:31 437.125/150
QB50P2 21 Apr 12:11:58 12:15:42 30° 265° (W) 12:19:25 145.880/145.840
HO-68 21 Apr 12:14:19 12:19:18 20° 306° (NW) 12:24:02 435.675
UWE-3 21 Apr 12:16:48 12:20:41 25° 293° (WNW) 12:24:28 435.000/436.395/437.385
ANTELSAT 21 Apr 12:18:02 12:20:53 16° 271° (W) 12:23:34 437.575/2403.000
50 SAT 21 Apr 12:22:45 12:26:49 69° 285° (WNW) 12:30:49 437.505
PCSat 21 Apr 12:34:31 12:37:14 13° 329° (NNW) 12:39:46 145.827
NANOSAT C BR1 21 Apr 12:34:35 12:37:34 18° 269° (W) 12:40:27 145.865
POPSAT HIP 1 21 Apr 12:35:33 12:38:30 18° 269° (W) 12:41:20 437.405
FUNcube-1 21 Apr 12:40:02 12:43:19 19° 295° (WNW) 12:46:28 145.935
AIST 1 21 Apr 12:43:41 12:47:55 60° 79° (E) 12:52:07
Cosmos 2504 21 Apr 12:43:45 12:47:57 15° 76° (ENE) 12:52:44 435.465 / 435.565
YUBILEINY 21 Apr 12:43:49 12:52:35 64° 283° (WNW) 13:01:21 435.215
BEESAT 2 21 Apr 12:46:59 12:50:55 40° 49° (NE) 12:54:48 435.950
VELOX 1 21 Apr 12:50:24 12:54:37 43° 289° (WNW) 12:58:47 145.980
BEESAT 3 21 Apr 12:51:52 12:55:55 53° 51° (NE) 12:59:54 437.485
UKube-1 21 Apr 12:53:25 12:56:44 21° 295° (WNW) 12:59:56 .
TISAT 1 21 Apr 13:01:56 13:05:34 28° 95° (E) 13:09:16 437.305
ZACube-1 21 Apr 13:04:46 13:06:27 12° 299° (WNW) 13:07:55 437.345
AISAT 21 Apr 13:06:34 13:10:26 29° 292° (WNW) 13:14:16 437.250
CUBEBUG 1 21 Apr 13:10:02 13:14:16 52° 287° (WNW) 13:18:30 437.445
SO-50 21 Apr 13:10:33 13:14:58 46° 118° (ESE) 13:19:35 436.795
SPROUT 21 Apr 13:13:30 13:17:41 47° 98° (E) 13:21:52 437.525
AIST 2 21 Apr 13:17:35 13:21:22 30° 45° (NE) 13:25:09 435.215
ESTCUBE 1 21 Apr 13:28:27 13:32:28 32° 291° (WNW) 13:36:24 437.505/2401.250
Cosmos 2491 21 Apr 13:35:22 13:39:13 13° 286° (WNW) 13:42:24 435.465 / 435.565
Oscar 19 21 Apr 13:44:02 13:49:09 78° 75° (ENE) 13:54:22 437.125/150
RS-15 21 Apr 13:48:43 13:54:06 16° 99° (E) 14:00:19 29.354- 29.394
ITUPSAT 1 21 Apr 14:02:06 14:05:34 20° 91° (E) 14:09:10 437.325
ITAMSAT 1 21 Apr 14:08:18 14:13:11 43° 69° (ENE) 14:18:05 435.822/435.867
Gurwin Techsat 1B 21 Apr 14:10:00 14:14:52 39° 68° (ENE) 14:19:49 435.225
JAS-2 21 Apr 14:13:28 14:16:55 14° 51° (NE) 14:20:43 435.910
ISS 21 Apr 14:22:17 14:25:26 48° 143° (SE) 14:28:36 145.825
AIST 1 21 Apr 14:23:20 14:25:06 12° 275° (W) 14:26:39
BEESAT 2 21 Apr 14:25:36 14:28:49 22° 246° (WSW) 14:31:55 435.950
AO-7 21 Apr 14:29:32 14:35:37 24° 52° (NE) 14:41:57 29.400- 29.500
BEESAT 3 21 Apr 14:30:56 14:33:34 16° 248° (WSW) 14:36:03 437.485
Cosmos 2504 21 Apr 14:31:16 14:40:03 72° 94° (E) 14:48:52 435.465 / 435.565
BEESAT 21 Apr 14:35:21 14:39:54 43° 99° (E) 14:44:26 436.000
SWISSCUBE 21 Apr 14:36:59 14:41:37 49° 99° (E) 14:46:13 437.505
TISAT 1 21 Apr 14:37:41 14:41:20 28° 292° (WNW) 14:44:55 437.305
YUBILEINY 21 Apr 14:47:12 14:51:44 14° 309° (NW) 14:55:44 435.215
SPROUT 21 Apr 14:50:29 14:53:28 18° 295° (WNW) 14:56:20 437.525
SO-50 21 Apr 14:51:36 14:55:44 28° 318° (NW) 14:59:55 436.795
AIST 2 21 Apr 14:56:09 14:59:58 32° 244° (WSW) 15:03:40 435.215
STARS 21 Apr 15:18:36 15:21:02 15° 89° (E) 15:23:39 437.465
Oscar 19 21 Apr 15:26:36 15:29:14 13° 273° (W) 15:31:36 437.125/150
HORYU 2 21 Apr 15:30:44 15:35:00 45° 71° (ENE) 15:39:20 437.375
ITUPSAT 1 21 Apr 15:39:10 15:43:45 46° 290° (WNW) 15:48:17 437.325
KKS-1 21 Apr 15:47:30 15:51:50 45° 99° (E) 15:56:09 437.445
ITAMSAT 1 21 Apr 15:48:36 15:52:54 25° 267° (W) 15:57:06 435.822/435.867
Gurwin Techsat 1B 21 Apr 15:50:20 15:54:58 29° 266° (W) 15:59:33 435.225
JAS-2 21 Apr 15:53:00 16:00:37 58° 70° (ENE) 16:08:09 435.910
RS-15 21 Apr 15:53:51 16:04:36 72° 119° (ESE) 16:15:41 29.354- 29.394
ISS 21 Apr 15:58:53 16:01:53 33° 341° (NNW) 16:04:55 145.825
BEESAT 21 Apr 16:13:45 16:17:31 23° 295° (WNW) 16:21:09 436.000
SWISSCUBE 21 Apr 16:15:37 16:19:10 21° 296° (WNW) 16:22:35 437.505
AO-7 21 Apr 16:19:14 16:27:33 88° 253° (WSW) 16:35:54 29.400- 29.500
Cosmos 2504 21 Apr 16:26:52 16:34:24 29° 296° (WNW) 16:41:40 435.465 / 435.565
STARS 21 Apr 16:53:32 16:57:56 57° 287° (WNW) 17:02:16 437.465
GONETS M04 21 Apr 17:05:56 17:14:08 49° 89° (E) 17:22:32
HORYU 2 21 Apr 17:08:41 17:11:56 19° 269° (W) 17:15:04 437.375
MOZHAYETS 4 21 Apr 17:17:17 17:21:16 29° 94° (E) 17:25:16
KKS-1 21 Apr 17:24:53 17:28:11 20° 295° (WNW) 17:31:23 437.445
ISS 21 Apr 17:36:20 17:38:54 21° 1° (N) 17:41:29 145.825
JAS-2 21 Apr 17:38:56 17:45:57 34° 268° (W) 17:52:48 435.910
CUSAT 1 21 Apr 17:40:17 17:42:38 18° 85° (E) 17:45:32 437.405
DANDE 21 Apr 17:50:03 17:51:52 15° 84° (E) 17:54:03 436.750
PCSat 21 Apr 17:50:34 17:55:15 29° 45° (NE) 17:59:58 145.827
CUTE-I 21 Apr 18:02:45 18:07:44 43° 69° (ENE) 18:12:46 437.470
RS-15 21 Apr 18:07:40 18:17:56 42° 326° (NW) 18:28:26 29.354- 29.394
Cubesat XI-IV 21 Apr 18:10:47 18:15:55 51° 71° (ENE) 18:21:05 437.490
AO-7 21 Apr 18:15:55 18:21:38 19° 273° (W) 18:26:55 29.400- 29.500
VERMONT LUNAR 21 Apr 18:37:27 18:39:07 13° 152° (SSE) 18:40:51 437.305
CUBESAT XI-V 21 Apr 18:41:23 18:44:27 18° 90° (E) 18:47:39 437.345
M-CUBED/EXP-1 PRIME 21 Apr 18:43:39 18:46:45 19° 95° (E) 18:49:47 437.505
MOZHAYETS 4 21 Apr 18:54:26 18:58:30 31° 292° (WNW) 19:02:29
GONETS M04 21 Apr 19:03:04 19:11:14 40° 291° (WNW) 19:19:22
Cosmos 2499 21 Apr 19:06:30 19:14:55 51° 90° (E) 19:23:16 435.465 / 435.565
HO-68 21 Apr 19:10:35 19:15:03 19° 53° (NE) 19:19:48 435.675
ISS 21 Apr 19:12:50 19:15:54 36° 21° (NNE) 19:18:57 145.825
CUSAT 1 21 Apr 19:22:09 19:25:07 26° 294° (WNW) 19:28:47 437.405
AUBIESAT-1 21 Apr 19:29:35 19:33:51 52° 104° (ESE) 19:37:46 437.475
DANDE 21 Apr 19:32:01 19:34:46 26° 293° (WNW) 19:38:07 436.750
PCSat 21 Apr 19:33:42 19:38:57 50° 245° (WSW) 19:44:09 145.827
PRISM 21 Apr 19:34:44 19:38:32 36° 98° (E) 19:42:20 437.425
CUTE-I 21 Apr 19:43:31 19:48:01 26° 267° (W) 19:52:26 437.470
BRITE-PL 21 Apr 19:45:30 19:48:42 22° 67° (ENE) 19:52:02 437.365/2234.400
Cubesat XI-IV 21 Apr 19:52:10 19:56:21 22° 268° (W) 20:00:25 437.490
GOMX 1 21 Apr 19:56:26 19:59:24 19° 65° (ENE) 20:02:33 467.674
PHONESAT 2.4 21 Apr 19:57:07 19:59:40 19° 155° (SSE) 20:02:15 2401.200-2431.200
CANX-2 21 Apr 19:58:31 20:01:21 18° 65° (ENE) 20:04:20 2200.000
SEEDS 21 Apr 19:58:39 20:00:44 14° 63° (ENE) 20:02:59 437.485
SO-50 21 Apr 20:01:01 20:03:48 15° 30° (NNE) 20:06:43 436.795
CUTE 1.7 + AOD 2 21 Apr 20:08:04 20:11:10 20° 66° (ENE) 20:14:23 437.475
STRAND 1 21 Apr 20:12:06 20:17:11 66° 102° (ESE) 20:22:15 437.568
VERMONT LUNAR 21 Apr 20:12:59 20:16:07 35° 167° (SSE) 20:19:15 437.305
M-CUBED/EXP-1 PRIME 21 Apr 20:17:41 20:21:54 42° 295° (WNW) 20:25:46 437.505
CUBESAT XI-V 21 Apr 20:17:46 20:22:14 49° 288° (WNW) 20:26:40 437.345
RS-15 21 Apr 20:25:27 20:34:18 26° 359° (N) 20:43:27 29.354- 29.394
AAUSAT CUBESAT 2 21 Apr 20:25:52 20:28:44 18° 66° (ENE) 20:31:43 437.432
CINEMA 3 21 Apr 20:34:59 20:37:51 18° 64° (ENE) 20:40:55 145.822/145.860
ISS 21 Apr 20:49:12 20:52:18 40° 219° (SW) 20:55:21 145.825
DOVE 4 21 Apr 20:53:24 20:57:27 50° 73° (ENE) 21:01:43 437.250
HO-68 21 Apr 20:54:39 21:01:50 81° 72° (ENE) 21:09:05 435.675
YUBILEINY 21 Apr 20:57:15 21:02:01 16° 54° (NE) 21:07:16 435.215
Oscar 11 21 Apr 20:58:37 21:01:47 21° 66° (ENE) 21:05:04 145.826/435.025
Cosmos 2499 21 Apr 21:00:04 21:08:20 40° 290° (WNW) 21:16:21 435.465 / 435.565
CUBEBUG 2 21 Apr 21:04:06 21:07:10 20° 65° (ENE) 21:10:26 437.445
AUBIESAT-1 21 Apr 21:05:16 21:08:13 18° 303° (WNW) 21:10:55 437.475
PRISM 21 Apr 21:10:42 21:13:49 21° 294° (WNW) 21:16:50 437.425
COMPASS 1 21 Apr 21:13:24 21:17:35 66° 75° (ENE) 21:21:50 437.405
BRITE-PL 21 Apr 21:23:25 21:27:09 32° 265° (W) 21:30:55 437.365/2234.400
DX 1 21 Apr 21:25:26 21:27:51 15° 63° (ENE) 21:30:25 434.975-435.025
SEEDS 21 Apr 21:31:50 21:36:04 64° 259° (W) 21:40:20 437.485
CANX-2 21 Apr 21:32:48 21:36:58 47° 261° (W) 21:41:10 2200.000
GOMX 1 21 Apr 21:33:25 21:37:19 39° 263° (W) 21:41:21 467.674
PHONESAT 2.4 21 Apr 21:34:04 21:37:29 42° 171° (S) 21:40:52 2401.200-2431.200
UWE-3 21 Apr 21:38:45 21:42:39 35° 70° (ENE) 21:46:44 435.000/436.395/437.385
SO-50 21 Apr 21:40:26 21:45:22 64° 52° (NE) 21:50:16 436.795
CUTE 1.7 + AOD 2 21 Apr 21:42:46 21:46:51 41° 263° (W) 21:50:56 437.475
VERMONT LUNAR 21 Apr 21:50:06 21:53:21 44° 184° (S) 21:56:35 437.305
STRAND 1 21 Apr 21:52:31 21:55:56 18° 299° (WNW) 21:59:11 437.568
AAUSAT CUBESAT 2 21 Apr 22:00:01 22:04:04 44° 262° (W) 22:08:08 437.432
FUNcube-1 21 Apr 22:00:04 22:04:10 46° 72° (ENE) 22:08:25 145.935
DELFI C3 21 Apr 22:04:01 22:08:05 73° 75° (ENE) 22:12:12 145.870
CINEMA 3 21 Apr 22:10:35 22:14:42 47° 262° (W) 22:19:02 145.822/145.860
UKube-1 21 Apr 22:12:58 22:17:01 41° 71° (ENE) 22:21:07 .
VELOX 1 21 Apr 22:13:58 22:17:17 22° 66° (ENE) 22:20:43 145.980
ZACube-1 21 Apr 22:23:23 22:27:41 84° 79° (E) 22:32:08 437.345
AISAT 21 Apr 22:29:25 22:33:17 31° 68° (ENE) 22:37:12 437.250
ANTELSAT 21 Apr 22:32:14 22:33:33 11° 86° (E) 22:35:10 437.575/2403.000
CUBEBUG 1 21 Apr 22:33:03 22:35:43 17° 64° (ENE) 22:38:32 437.445
DOVE 4 21 Apr 22:33:10 22:35:41 15° 272° (W) 22:38:06 437.250
Oscar 11 21 Apr 22:33:36 22:37:43 41° 262° (W) 22:41:53 145.826/435.025
CUBEBUG 2 21 Apr 22:39:27 22:43:34 44° 262° (W) 22:47:51 437.445
RS-15 21 Apr 22:40:32 22:50:55 39° 32° (NNE) 23:01:52 29.354- 29.394
Cosmos 2491 21 Apr 22:42:48 22:49:55 31° 84° (E) 22:57:19 435.465 / 435.565
HO-68 21 Apr 22:45:21 22:50:29 20° 272° (W) 22:55:20 435.675
YUBILEINY 21 Apr 22:52:07 23:00:55 72° 79° (E) 23:09:37 435.215
COMPASS 1 21 Apr 22:52:07 22:53:49 12° 273° (W) 22:55:17 437.405
ESTCUBE 1 21 Apr 22:52:54 22:56:49 30° 68° (ENE) 23:00:47 437.505/2401.250
HUMSAT D 21 Apr 22:54:21 22:58:34 89° 78° (ENE) 23:02:52 437.325/437.525
DX 1 21 Apr 22:59:24 23:03:41 59° 259° (W) 23:07:58 434.975-435.025
50 SAT 21 Apr 23:09:18 23:13:18 84° 76° (ENE) 23:17:22 437.505
POLYITAN 1 21 Apr 23:11:18 23:13:14 13° 88° (E) 23:15:23 437.675
PHONESAT 2.4 21 Apr 23:12:02 23:15:28 43° 188° (S) 23:18:53 2401.200-2431.200
UWE-3 21 Apr 23:15:50 23:19:19 23° 268° (W) 23:22:49 435.000/436.395/437.385
DUCHIFAT 1 21 Apr 23:17:32 23:19:50 15° 89° (E) 23:22:19 145.980
SO-50 21 Apr 23:22:01 23:25:30 19° 249° (WSW) 23:28:49 436.795
TIGRISAT 21 Apr 23:22:23 23:26:44 35° 96° (E) 23:31:03 435.000
UNISAT 6 21 Apr 23:24:36 23:29:01 38° 97° (E) 23:33:25 437.425
O/OREOS (USA 219) 21 Apr 23:26:46 23:31:05 43° 108° (ESE) 23:35:27 437.305
VERMONT LUNAR 21 Apr 23:27:43 23:30:30 23° 200° (SSW) 23:33:14 437.305
QB50P1 21 Apr 23:31:24 23:34:38 21° 92° (E) 23:37:58 145.935-145.965
BUGSAT 1 21 Apr 23:31:45 23:33:55 14° 90° (E) 23:36:16 437.445
FUNcube-1 21 Apr 23:37:52 23:40:50 17° 270° (W) 23:43:42 145.935
VELOX 1 21 Apr 23:49:31 23:53:39 39° 262° (W) 23:57:47 145.980
UKube-1 21 Apr 23:50:13 23:53:23 19° 268° (W) 23:56:27 .
QB50P2 21 Apr 23:55:19 23:59:20 38° 97° (E) 00:03:23 145.880/145.840
TISAT 1 21 Apr 23:55:51 23:59:18 26° 68° (ENE) 00:02:49 437.305
AISAT 22 Apr 00:06:11 00:09:55 26° 266° (W) 00:13:35 437.250
ANTELSAT 22 Apr 00:06:17 00:11:03 82° 284° (WNW) 00:15:44 437.575/2403.000
CUBEBUG 1 22 Apr 00:07:30 00:11:44 52° 260° (W) 00:15:59 437.445
SPROUT 22 Apr 00:09:06 00:13:08 43° 71° (ENE) 00:17:13 437.525
NANOSAT C BR1 22 Apr 00:16:26 00:20:42 64° 101° (E) 00:24:56 145.865
POPSAT HIP 1 22 Apr 00:17:35 00:21:52 66° 101° (E) 00:26:09 437.405
Cosmos 2504 22 Apr 00:23:44 00:30:34 28° 64° (ENE) 00:37:10 435.465 / 435.565
ESTCUBE 1 22 Apr 00:29:43 00:33:41 29° 265° (W) 00:37:35 437.505/2401.250
Cosmos 2491 22 Apr 00:37:40 00:46:17 62° 284° (WNW) 00:54:59 435.465 / 435.565
POLYITAN 1 22 Apr 00:45:22 00:49:38 61° 286° (WNW) 00:53:53 437.675
YUBILEINY 22 Apr 00:50:06 00:57:01 26° 278° (W) 01:03:36 435.215
PHONESAT 2.4 22 Apr 00:50:36 00:53:17 20° 204° (SSW) 00:55:55 2401.200-2431.200
DUCHIFAT 1 22 Apr 00:51:52 00:56:03 54° 287° (WNW) 01:00:13 145.980
